Regional Weather Roundup
Issued by NWS Newport/Morehead, NC

Current Version | Previous Version | Text Only | Print | Product List | Glossary Off
Versions: 1 2 3 4 5 6 7 8 9 10 11 12 13 14 15 16 17 18 19 20 21 22 23 24 25 26 27 28 29 30 31 32 33 34 35 36 37 38 39 40 41 42 43 44 45 46 47 48 49 50
000 ASUS42 KMHX 201610 RWRMHX WEATHER ROUNDUP FOR EASTERN NORTH CAROLINA NATIONAL WEATHER SERVICE NEWPORT/MOREHEAD CITY NC 1200 PM EDT MON OCT 20 2014 NOTE: "FAIR" INDICATES FEW OR NO CLOUDS BELOW 12,000 FEET WITH NO SIGNIFICANT WEATHER AND/OR OBSTRUCTIONS TO VISIBILITY NCZ015>017-031-032-045>047-102-103-201700- NORTH COAST CITY SKY/WX TMP DP RH WIND PRES REMARKS EDENTON MOSUNNY 65 42 43 S9 30.15F ELIZABETH CITY MOSUNNY 66 44 45 S12 30.16F KITTY HAWK MOSUNNY 65 44 46 S5 30.14F MANTEO MOSUNNY 64 45 49 S6 30.16F $$ NCZ045>047-081-094-103-104-201700- CENTRAL COAST CITY SKY/WX TMP DP RH WIND PRES REMARKS FRISCO SUNNY 67 48 50 VRB3 30.16F SWANQUARTER N/A 68 N/A N/A S5 30.12F $$ NCZ095-097-098-100-101-201700- SOUTHERN COAST CITY SKY/WX TMP DP RH WIND PRES REMARKS BEAUFORT SUNNY 68 49 50 VRB5 30.15F CEDAR ISLAND N/A 66 N/A N/A VRB3 30.21S JACKSONVILLE MOSUNNY 67 50 54 E5 30.15F PINEY ISLAND SUNNY 71 46 40 VRB3 30.15F WILMINGTON SUNNY 70 52 52 SW5 30.15F $$ NCZ011>013-027>030-043-044-078>080-089-090>093-098-201700- COASTAL PLAIN CITY SKY/WX TMP DP RH WIND PRES REMARKS AHOSKIE PTSUNNY 62 41 45 S8 30.14F CLINTON SUNNY 67 50 54 S7 30.15F ELIZABETHTOWN SUNNY 67 49 52 S5 30.15F GOLDSBORO SUNNY 67 51 56 S3 30.13F GREENVILLE SUNNY 66 46 48 SW9 30.16F HAVELOCK MOSUNNY 70 50 49 S7 30.16F KENANSVILLE SUNNY 67 48 52 S5 30.16F KINSTON SUNNY 68 48 49 S13G18 30.15F NEW BERN SUNNY 69 49 48 S6 30.16F RICHLANDS SUNNY 70 48 46 SW10 30.15F ROCKY MOUNT MOSUNNY 65 45 48 S10 30.14F WASHINGTON SUNNY 64 47 52 S6 30.15F WHITEVILLE SUNNY 68 51 53 SE3 30.13F $$ AMZ130-135-150-152-154-156-158-170-250-252-270-ANZ085-086-088-633-658-670-201700- MARINE OBSERVATIONS STATION/POSITION TIME TEMP WIND PRES WAVE SWELL AIR SEA DIR/SP/G HT/PER HT/PER (UTC) (F) (DEG/KT/KT) (MB) (FT/S) (FT/S) CHESAPEAKE LIGHT 1500 61 200/ 12/ 14 1021.9 64 E VA BEACH 1600 63 69 220/ 6/ 8 1020.8 3/13 3/13 DUCK 1600 62 68 180/ 9/ 12 1020.3 2 E DUCK 1600 N/A 2/13 2/13 10 NE DUCK 1600 71 N/A 3/13 2/13 OREGON INLET 1600 63 67 240/ 3/ 4 1021.2 13E OREGON INLT 1600 73 N/A 3/12 2/12 HATTERAS CG 1600 64 68 330/ 4/ 5 1021.8 DIAMOND BUOY 1500 65 320/ 6/ 8 1021.7 4/12 3/12 17 S OCRACOKE 1500 VRB 4/ 6 1021.5 CAPE LOOKOUT 1500 64 360/ 6/ 7 1021.5 BEAUFORT LAB 1600 67 68 140/ 1/ 4 1020.3 30 SE NEW RIVER 1600 68 77 100/ 2/ 4 1020.7 2/ 9 2/ 9 5 SE WRIGHTSVLE 1600 66 74 280/ 2/ 4 N/A 225 S CAPE HAT 1511 71 80 80/ 8/ 12 1021.0 4/ 9 3/ 9 41 SE CHARLESTON 1600 72 80 80/ 8/ 10 1019.7 2/ 9 2/ 9 $$

USA.gov is the U.S. government's official web portal to all federal, state and local government web resources and services.